FIN807 EFHK-ESSA

Flight info

Callsign FIN807
Flight time 0h 44m
Altitude 34000
Route ADIVO Y365 POGOK DCT RUNGA N872 XILAN
Aircraft A320/M-SDE3FGHIRWY/LB1

Departure

Time 2026-04-24 20:30
Airport Helsinki Vantaa Airport (EFHK)

Arrival

Time 2026-04-24 21:14
Airport Stockholm-Arlanda Airport (ESSA)
Time Latitude Longitude Altitude Speed Heading
2026-04-24 19:56 60.31785 24.97079 167 ft 0 kts 243°
2026-04-24 20:15 60.31787 24.97089 167 ft 2 kts 243°
2026-04-24 20:15 60.31795 24.97124 166 ft 3 kts 249°
2026-04-24 20:15 60.31801 24.97163 166 ft 3 kts 261°
2026-04-24 20:16 60.31802 24.97201 166 ft 3 kts 290°
2026-04-24 20:16 60.31795 24.97225 166 ft 1 kts 332°
2026-04-24 20:16 60.31794 24.97227 166 ft 0 kts 333°
2026-04-24 20:22 60.31809 24.97211 166 ft 6 kts 333°
2026-04-24 20:22 60.31846 24.97172 166 ft 8 kts 333°
2026-04-24 20:22 60.31918 24.97099 166 ft 15 kts 333°
2026-04-24 20:23 60.32016 24.96997 166 ft 17 kts 333°
2026-04-24 20:23 60.32113 24.96890 166 ft 15 kts 330°
2026-04-24 20:23 60.32192 24.96795 166 ft 9 kts 329°
2026-04-24 20:23 60.32247 24.96708 167 ft 11 kts 296°
2026-04-24 20:24 60.32231 24.96621 168 ft 11 kts 225°
2026-04-24 20:24 60.32140 24.96425 168 ft 16 kts 226°
2026-04-24 20:24 60.32056 24.96243 168 ft 19 kts 227°
2026-04-24 20:24 60.31973 24.96054 169 ft 15 kts 229°
2026-04-24 20:25 60.31898 24.95890 170 ft 17 kts 226°
2026-04-24 20:25 60.31806 24.95693 170 ft 20 kts 227°
2026-04-24 20:25 60.31705 24.95473 171 ft 22 kts 227°
2026-04-24 20:25 60.31605 24.95246 170 ft 22 kts 227°
2026-04-24 20:26 60.31494 24.95004 169 ft 25 kts 227°
2026-04-24 20:26 60.31368 24.94726 163 ft 24 kts 227°
2026-04-24 20:26 60.31260 24.94488 159 ft 25 kts 227°
2026-04-24 20:26 60.31140 24.94224 158 ft 25 kts 227°
2026-04-24 20:27 60.31076 24.94081 158 ft 9 kts 228°
2026-04-24 20:27 60.31031 24.93932 159 ft 13 kts 264°
2026-04-24 20:27 60.31054 24.93805 159 ft 9 kts 311°
2026-04-24 20:27 60.31111 24.93713 158 ft 14 kts 326°
2026-04-24 20:28 60.31172 24.93733 158 ft 0 kts 45°
2026-04-24 20:29 60.31388 24.94205 161 ft 87 kts 48°
2026-04-24 20:29 60.31945 24.95435 173 ft 149 kts 47°
2026-04-24 20:29 60.32692 24.97119 631 ft 160 kts 48°
2026-04-24 20:30 60.33425 24.98781 1454 ft 157 kts 44°
2026-04-24 20:30 60.34179 25.00448 2048 ft 168 kts 44°
2026-04-24 20:30 60.35016 25.02273 2519 ft 185 kts 43°
2026-04-24 20:30 60.35941 25.04273 2940 ft 207 kts 43°
2026-04-24 20:31 60.36982 25.06500 3497 ft 227 kts 43°
2026-04-24 20:31 60.38109 25.08936 4092 ft 248 kts 43°
2026-04-24 20:31 60.39367 25.11388 4971 ft 252 kts 31°
2026-04-24 20:31 60.40962 25.12765 5943 ft 251 kts
2026-04-24 20:32 60.42690 25.12696 6960 ft 249 kts 346°
2026-04-24 20:32 60.43759 25.11857 7589 ft 251 kts 330°
2026-04-24 20:32 60.45325 25.08352 8871 ft 260 kts 296°
2026-04-24 20:32 60.45646 25.04695 9806 ft 272 kts 270°
2026-04-24 20:33 60.45233 25.00786 10283 ft 297 kts 260°
2026-04-24 20:33 60.44646 24.96635 10791 ft 313 kts 258°
2026-04-24 20:33 60.44224 24.93822 11301 ft 317 kts 258°
2026-04-24 20:33 60.43569 24.89537 12143 ft 321 kts 258°
2026-04-24 20:34 60.42688 24.83789 13279 ft 325 kts 258°
2026-04-24 20:34 60.42024 24.79400 14060 ft 327 kts 259°
2026-04-24 20:34 60.41576 24.76416 14564 ft 329 kts 259°
2026-04-24 20:34 60.40923 24.72029 15321 ft 331 kts 259°
2026-04-24 20:35 60.40262 24.67559 16080 ft 333 kts 259°
2026-04-24 20:35 60.39598 24.63063 16838 ft 335 kts 259°
2026-04-24 20:35 60.38929 24.58529 17587 ft 337 kts 259°
2026-04-24 20:35 60.38252 24.53978 18289 ft 339 kts 259°
2026-04-24 20:36 60.37566 24.49400 18916 ft 342 kts 259°
2026-04-24 20:36 60.36868 24.44781 19535 ft 345 kts 259°
2026-04-24 20:36 60.36165 24.40122 20158 ft 348 kts 258°
2026-04-24 20:36 60.35456 24.35419 20770 ft 351 kts 258°
2026-04-24 20:37 60.34741 24.30694 21393 ft 354 kts 258°
2026-04-24 20:37 60.34016 24.25923 22005 ft 357 kts 258°
2026-04-24 20:37 60.33282 24.21118 22610 ft 360 kts 258°
2026-04-24 20:37 60.32541 24.16260 23205 ft 363 kts 257°
2026-04-24 20:38 60.31793 24.11379 23655 ft 367 kts 257°
2026-04-24 20:38 60.31031 24.06427 24088 ft 371 kts 256°
2026-04-24 20:38 60.30260 24.01428 24538 ft 375 kts 256°
2026-04-24 20:38 60.29557 23.96354 24997 ft 376 kts 261°
2026-04-24 20:39 60.29002 23.91194 25438 ft 378 kts 261°
2026-04-24 20:39 60.28442 23.86001 25876 ft 381 kts 261°
2026-04-24 20:39 60.27875 23.80759 26304 ft 384 kts 261°
2026-04-24 20:39 60.27305 23.75499 26726 ft 386 kts 261°
2026-04-24 20:40 60.26733 23.70262 27135 ft 389 kts 260°
2026-04-24 20:40 60.26146 23.64914 27539 ft 392 kts 260°
2026-04-24 20:40 60.25554 23.59540 27930 ft 394 kts 260°
2026-04-24 20:40 60.24956 23.54135 28323 ft 397 kts 260°
2026-04-24 20:41 60.24350 23.48695 28717 ft 400 kts 260°
2026-04-24 20:41 60.23738 23.43221 29087 ft 402 kts 260°
2026-04-24 20:41 60.23117 23.37700 29462 ft 405 kts 260°
2026-04-24 20:41 60.22493 23.32166 29809 ft 407 kts 259°
2026-04-24 20:42 60.21863 23.26595 30123 ft 409 kts 259°
2026-04-24 20:42 60.21230 23.21004 30418 ft 411 kts 259°
2026-04-24 20:42 60.20590 23.15386 30700 ft 414 kts 259°
2026-04-24 20:42 60.19942 23.09730 30939 ft 416 kts 259°
2026-04-24 20:43 60.19289 23.04028 31130 ft 420 kts 259°
2026-04-24 20:43 60.18630 22.98290 31375 ft 423 kts 259°
2026-04-24 20:43 60.17966 22.92518 31671 ft 424 kts 259°
2026-04-24 20:43 60.17301 22.86759 32050 ft 423 kts 259°
2026-04-24 20:44 60.16631 22.81008 32418 ft 422 kts 258°
2026-04-24 20:44 60.15958 22.75283 32780 ft 422 kts 258°
2026-04-24 20:44 60.15278 22.69544 33149 ft 422 kts 258°
2026-04-24 20:44 60.14599 22.63830 33516 ft 421 kts 258°
2026-04-24 20:45 60.13928 22.58185 33750 ft 421 kts 258°
2026-04-24 20:45 60.13253 22.52544 33788 ft 411 kts 258°
2026-04-24 20:45 60.11928 22.41522 33791 ft 404 kts 258°
2026-04-24 20:46 60.10609 22.30581 33797 ft 403 kts 258°
2026-04-24 20:46 60.09282 22.19668 33797 ft 403 kts 258°
2026-04-24 20:47 60.07943 22.08756 33794 ft 403 kts 258°
2026-04-24 20:47 60.06596 21.97835 33771 ft 403 kts 258°
2026-04-24 20:48 60.05238 21.86992 33776 ft 404 kts 258°
2026-04-24 20:48 60.03865 21.76086 33777 ft 405 kts 258°
2026-04-24 20:49 60.02494 21.65169 33772 ft 405 kts 258°
2026-04-24 20:49 60.01106 21.54259 33779 ft 405 kts 258°
2026-04-24 20:50 59.99698 21.43347 33779 ft 405 kts 257°
2026-04-24 20:50 59.98263 21.32465 33783 ft 405 kts 257°
2026-04-24 20:51 59.97516 21.27044 33482 ft 404 kts 256°
2026-04-24 20:51 59.96761 21.21672 32931 ft 401 kts 256°
2026-04-24 20:51 59.96008 21.16343 32418 ft 396 kts 256°
2026-04-24 20:51 59.95263 21.11084 31927 ft 392 kts 256°
2026-04-24 20:52 59.94524 21.05871 31447 ft 388 kts 257°
2026-04-24 20:52 59.93793 21.00718 30990 ft 384 kts 257°
2026-04-24 20:52 59.93071 20.95618 30520 ft 380 kts 257°
2026-04-24 20:52 59.92356 20.90566 30081 ft 377 kts 257°
2026-04-24 20:53 59.91650 20.85575 29661 ft 372 kts 257°
2026-04-24 20:53 59.90950 20.80630 29170 ft 368 kts 257°
2026-04-24 20:53 59.90255 20.75749 28681 ft 365 kts 257°
2026-04-24 20:53 59.89562 20.70902 28193 ft 362 kts 257°
2026-04-24 20:54 59.88871 20.66099 27714 ft 359 kts 257°
2026-04-24 20:54 59.88193 20.61403 27270 ft 356 kts 257°
2026-04-24 20:54 59.87509 20.56681 26816 ft 354 kts 257°
2026-04-24 20:54 59.86826 20.51994 26365 ft 351 kts 257°
2026-04-24 20:55 59.86147 20.47347 25917 ft 348 kts 257°
2026-04-24 20:55 59.85474 20.42737 25479 ft 346 kts 257°
2026-04-24 20:55 59.84804 20.38159 25039 ft 343 kts 257°
2026-04-24 20:55 59.84137 20.33611 24603 ft 341 kts 258°
2026-04-24 20:56 59.83473 20.29094 24170 ft 339 kts 258°
2026-04-24 20:56 59.82813 20.24620 23743 ft 336 kts 258°
2026-04-24 20:56 59.82153 20.20175 23306 ft 334 kts 258°
2026-04-24 20:56 59.81497 20.15759 22818 ft 332 kts 258°
2026-04-24 20:57 59.80847 20.11379 22357 ft 329 kts 258°
2026-04-24 20:57 59.80201 20.07045 21904 ft 326 kts 258°
2026-04-24 20:57 59.79555 20.02735 21400 ft 324 kts 257°
2026-04-24 20:57 59.78911 19.98457 20940 ft 323 kts 257°
2026-04-24 20:58 59.78269 19.94198 20513 ft 321 kts 257°
2026-04-24 20:58 59.77633 19.89976 20102 ft 318 kts 257°
2026-04-24 20:58 59.77000 19.85786 19697 ft 316 kts 257°
2026-04-24 20:58 59.76369 19.81630 19301 ft 313 kts 257°
2026-04-24 20:59 59.75740 19.77503 18908 ft 311 kts 257°
2026-04-24 20:59 59.75118 19.73411 18533 ft 309 kts 257°
2026-04-24 20:59 59.74513 19.69341 18156 ft 306 kts 258°
2026-04-24 20:59 59.73949 19.65285 17739 ft 304 kts 258°
2026-04-24 21:00 59.73404 19.61254 17310 ft 302 kts 259°
2026-04-24 21:00 59.72864 19.57243 16897 ft 300 kts 259°
2026-04-24 21:00 59.72327 19.53264 16486 ft 298 kts 258°
2026-04-24 21:00 59.71786 19.49312 16086 ft 297 kts 258°
2026-04-24 21:01 59.71243 19.45380 15690 ft 295 kts 258°
2026-04-24 21:01 59.70701 19.41472 15308 ft 294 kts 258°
2026-04-24 21:01 59.70161 19.37586 14929 ft 292 kts 258°
2026-04-24 21:01 59.69628 19.33769 14565 ft 291 kts 258°
2026-04-24 21:02 59.69192 19.29890 14200 ft 285 kts 269°
2026-04-24 21:02 59.69213 19.26027 13839 ft 283 kts 274°
2026-04-24 21:02 59.69276 19.22116 13457 ft 281 kts 274°
2026-04-24 21:02 59.69341 19.18269 12895 ft 279 kts 274°
2026-04-24 21:03 59.69406 19.14477 12361 ft 272 kts 274°
2026-04-24 21:03 59.69468 19.10751 11672 ft 270 kts 274°
2026-04-24 21:03 59.69528 19.07045 10977 ft 269 kts 274°
2026-04-24 21:03 59.69587 19.03351 10288 ft 268 kts 274°
2026-04-24 21:04 59.69646 18.99674 9597 ft 267 kts 273°
2026-04-24 21:04 59.69703 18.96006 8866 ft 265 kts 273°
2026-04-24 21:04 59.69758 18.92368 8164 ft 263 kts 273°
2026-04-24 21:04 59.69808 18.88771 7467 ft 260 kts 273°
2026-04-24 21:05 59.69856 18.85207 6793 ft 258 kts 273°
2026-04-24 21:05 59.69902 18.81679 6123 ft 255 kts 273°
2026-04-24 21:05 59.69950 18.78183 5411 ft 253 kts 273°
2026-04-24 21:05 59.70000 18.74670 4952 ft 254 kts 273°
2026-04-24 21:06 59.70047 18.71196 4561 ft 251 kts 273°
2026-04-24 21:06 59.70091 18.67754 4143 ft 249 kts 272°
2026-04-24 21:06 59.70132 18.64332 3735 ft 247 kts 272°
2026-04-24 21:06 59.70174 18.60941 3304 ft 245 kts 272°
2026-04-24 21:07 59.70217 18.57571 2875 ft 244 kts 272°
2026-04-24 21:07 59.70260 18.54241 2636 ft 241 kts 272°
2026-04-24 21:07 59.70301 18.50922 2524 ft 241 kts 271°
2026-04-24 21:07 59.70340 18.47645 2522 ft 230 kts 271°
2026-04-24 21:08 59.70374 18.44604 2518 ft 213 kts 271°
2026-04-24 21:08 59.70403 18.41795 2515 ft 195 kts 271°
2026-04-24 21:08 59.70430 18.39214 2517 ft 182 kts 271°
2026-04-24 21:08 59.70456 18.36742 2516 ft 178 kts 271°
2026-04-24 21:09 59.70482 18.34311 2514 ft 176 kts 271°
2026-04-24 21:09 59.70490 18.31893 2517 ft 175 kts 265°
2026-04-24 21:09 59.70305 18.29526 2533 ft 169 kts 260°
2026-04-24 21:09 59.70068 18.27391 2523 ft 149 kts 258°
2026-04-24 21:10 59.69841 18.25484 2510 ft 141 kts 258°
2026-04-24 21:10 59.69615 18.23624 2508 ft 138 kts 258°
2026-04-24 21:10 59.69387 18.21781 2476 ft 138 kts 258°
2026-04-24 21:10 59.69159 18.19944 2369 ft 137 kts 258°
2026-04-24 21:11 59.68932 18.18124 2203 ft 136 kts 257°
2026-04-24 21:11 59.68703 18.16308 2043 ft 136 kts 257°
2026-04-24 21:11 59.68476 18.14496 1886 ft 135 kts 256°
2026-04-24 21:11 59.68246 18.12700 1714 ft 134 kts 256°
2026-04-24 21:12 59.68031 18.10900 1535 ft 134 kts 257°
2026-04-24 21:12 59.67887 18.09709 1417 ft 134 kts 256°
2026-04-24 21:12 59.67575 18.07311 1113 ft 135 kts 256°
2026-04-24 21:12 59.67348 18.05518 917 ft 135 kts 254°
2026-04-24 21:13 59.67125 18.03712 711 ft 136 kts 255°
2026-04-24 21:13 59.66900 18.01870 549 ft 138 kts 253°
2026-04-24 21:13 59.66659 18.00025 374 ft 138 kts 252°
2026-04-24 21:13 59.66426 17.98181 198 ft 138 kts 252°
2026-04-24 21:14 59.66197 17.96435 138 ft 112 kts 256°
2026-04-24 21:14 59.66083 17.95518 138 ft 34 kts 256°
2026-04-24 21:14 59.66011 17.94979 136 ft 40 kts 254°
2026-04-24 21:14 59.65923 17.94654 138 ft 6 kts 231°
2026-04-24 21:15 59.65899 17.94597 138 ft 2 kts 229°
2026-04-24 21:15 59.65898 17.94595 138 ft 0 kts 229°
2026-04-24 21:15 59.65887 17.94571 138 ft 5 kts 229°
2026-04-24 21:15 59.65867 17.94523 138 ft 4 kts 228°
2026-04-24 21:16 59.65847 17.94488 138 ft 4 kts 220°
2026-04-24 21:16 59.65830 17.94458 138 ft 3 kts 223°
2026-04-24 21:16 59.65803 17.94402 138 ft 18 kts 228°
2026-04-24 21:16 59.65729 17.94165 138 ft 20 kts 246°
2026-04-24 21:17 59.65699 17.93941 138 ft 13 kts 257°
2026-04-24 21:17 59.65677 17.93763 138 ft 14 kts 256°
2026-04-24 21:17 59.65659 17.93620 138 ft 9 kts 255°
2026-04-24 21:17 59.65648 17.93543 138 ft 8 kts 254°
2026-04-24 21:18 59.65602 17.93194 138 ft 29 kts 256°
2026-04-24 21:18 59.65565 17.92902 138 ft 15 kts 256°
2026-04-24 21:18 59.65538 17.92692 138 ft 15 kts 255°
2026-04-24 21:18 59.65496 17.92479 138 ft 18 kts 236°
2026-04-24 21:19 59.65405 17.92308 138 ft 19 kts 217°
2026-04-24 21:19 59.65270 17.92242 138 ft 21 kts 190°
2026-04-24 21:19 59.65123 17.92191 138 ft 23 kts 189°
2026-04-24 21:19 59.64964 17.92131 138 ft 24 kts 191°
2026-04-24 21:20 59.64650 17.92021 138 ft 24 kts 191°
2026-04-24 21:20 59.64488 17.91963 138 ft 21 kts 189°
2026-04-24 21:20 59.64412 17.92027 138 ft 14 kts 117°
2026-04-24 21:21 59.64385 17.92135 138 ft 9 kts 118°
2026-04-24 21:21 59.64356 17.92242 138 ft 9 kts 119°
2026-04-24 21:21 59.64331 17.92376 138 ft 7 kts 62°
2026-04-24 21:21 59.64372 17.92429 138 ft 10 kts 33°
2026-04-24 21:22 59.64416 17.92490 138 ft 11 kts 38°
2026-04-24 21:22 59.64453 17.92593 138 ft 5 kts 57°
2026-04-24 21:22 59.64465 17.92631 138 ft 2 kts 57°
2026-04-24 21:22 59.64467 17.92634 138 ft 0 kts 57°